Skip Page Navigation
NASA JPL Caltech
NASA Logo - Jet Propulsion Laboratory + View the NASA Portal
+ Center for Near-Earth Object Studies
JPL Home Earth Solar System Stars & Galaxies Technology
JPL Solar System Dynamics
BODIES ORBITS EPHEMERIDES TOOLS PHYSICAL DATA DISCOVERY FAQ SITE MAP
JPL Small-Body Database Browser
Search: [ help ]  
85566 (1998 BM9)
Classification: Main-belt Asteroid          SPK-ID: 2085566
Ephemeris | Orbit Diagram | Orbital Elements | Mission Design | Physical Parameters | Discovery Circumstances | Close-Approach Data ]

[ show orbit diagram ]
Orbital Elements at Epoch 2459000.5 (2020-May-31.0) TDB
Reference: JPL 19 (heliocentric ecliptic J2000)
 Element Value Uncertainty (1-sigma)   Units 
e .1984307322003469 3.8017e-08  
a 2.801662774352796 1.4537e-08 au
q 2.245726778659516 1.0952e-07 au
i .8554279285570175 4.4228e-06 deg
node 292.5204407672015 0.00029842 deg
peri 72.83394525340205 0.00029866 deg
M 20.9677649579864 1.1474e-05 deg
tp 2458900.736459057870
(2020-Feb-21.23645906)
5.4424e-05 TDB
period 1712.861376075625
4.69
1.3331e-05
3.65e-08
d
yr
n .2101746265216184 1.6358e-09 deg/d
Q 3.357598770046077 1.7421e-08 au
  Orbit Determination Parameters
   # obs. used (total)      848  
   data-arc span      8230 days (22.53 yr)  
   first obs. used      1998-01-18  
   last obs. used      2020-07-31  
   planetary ephem.      DE431  
   SB-pert. ephem.      SB431-N16  
   condition code      0  
   norm. resid. RMS      .5946  
   source      ORB  
   producer      Otto Matic  
   solution date      2020-Aug-25 07:56:13  

Additional Information
 Earth MOID = 1.24417 au 
 Jupiter MOID = 2.10746 au 
 T_jup = 3.295 
[ hide covariance matrix ]
Orbital Elements at Epoch 2456848.5 (2014-Jul-10.0) TDB
Reference: JPL 19 (heliocentric ecliptic J2000)
 Element Value Uncertainty (1-sigma)   Units 
e .2022951741765099 3.8372e-08  
q 2.233830160835606 1.1103e-07 au
tp 2457184.971798625306
(2015-Jun-11.47179863)
5.0803e-05 TDB
node 293.1899707603742 0.00029953 deg
peri 71.72529567067512 0.00029975 deg
i .853771574983495 4.4202e-06 deg
  Orbit Determination Parameters
   # obs. used (total)      848  
   data-arc span      8230 days (22.53 yr)  
   first obs. used      1998-01-18  
   last obs. used      2020-07-31  
   planetary ephem.      DE431  
   SB-pert. ephem.      SB431-N16  
   condition code      0  
   norm. resid. RMS      .5946  
   source      ORB  
   producer      Otto Matic  
   solution date      2020-Aug-25 07:56:13  

Additional Information
 Jupiter MOID = 2.10746 au 
 T_jup = 3.295 
Orbit Covariance (6×6)
  e q tp node peri i
e 1.472376236118251E-15 -4.238343593795671E-15 -1.4994742319024E-14 -1.067189708175438E-14 -3.717306799598247E-15 1.172916189217334E-17
q -4.238343593795671E-15 1.232858304026155E-14 3.056155775262734E-14 3.075735918616072E-14 1.843832978853067E-15 5.908093549211748E-17
tp -1.4994742319024E-14 3.056155775262734E-14 2.580895149623843E-9 -1.257473470281177E-11 6.046662197973669E-10 -2.120609714040949E-13
node -1.067189708175438E-14 3.075735918616072E-14 -1.257473470281177E-11 8.971701637040108E-8 -8.970898572622944E-8 5.718014753960154E-11
peri -3.717306799598247E-15 1.843832978853067E-15 6.046662197973669E-10 -8.970898572622944E-8 8.984769730504964E-8 -5.72300639036939E-11
i 1.172916189217334E-17 5.908093549211748E-17 -2.120609714040949E-13 5.718014753960154E-11 -5.72300639036939E-11 1.953803425422289E-11

Ephemeris | Orbit Diagram | Orbital Elements | Mission Design | Physical Parameters | Discovery Circumstances | Close-Approach Data ]

Physical Parameter Table
Parameter Symbol Value Units Sigma Reference Notes
absolute magnitude H 15.2   n/a MPO351442  
diameter diameter 2.600 km 0.585 urn:nasa:pds:neowise_diameters_albedos::2.0[mainbelt] (http://adsabs.harvard.edu/abs/2011ApJ...741...68M)  
geometric albedo albedo 0.217   0.135 urn:nasa:pds:neowise_diameters_albedos::2.0[mainbelt] (http://adsabs.harvard.edu/abs/2011ApJ...741...68M)  

85566 (1998 BM9)          Discovered 1998-Jan-18 by Spacewatch at Kitt Peak
Reference: 20040830/Numbers.arcLast Updated: 2004-09-06

[ show close-approach data ]
Alternate Designations
 1998 BM9 = 2001 VC25 
Ephemeris | Orbit Diagram | Orbital Elements | Mission Design | Physical Parameters | Discovery Circumstances | Close-Approach Data ]
ABOUT SSD CREDITS/AWARDS PRIVACY/COPYRIGHT GLOSSARY LINKS
FirstGov 2020-Oct-28 04:13 UT
(server date/time)  
NASA Home Page
Site Manager:   Ryan S. Park
Webmaster  Alan B. Chamberlin